DELTA 1 R/B (20323 NORAD) Tracking and Keplerian Element Data

This shows tracking and keplerian element data for the satellite.

Feedback or suggestion? Click here.




ElementValue
Catalog20323
NameDELTA 1 R/B
Epoch Orbit80224
Epoch Day12.90256241
Epoch Year2024
RAAN332.0371
Inclination97.0982
Eccentricity0.007231
Argument of Perigee84.6571
Mean Anonmoly276.2871
Mean Motion14.49209272
Decay Rate8.63E-06
L11 20323U 89089B 24012.90256241 .00000863 00000+0 22811-3 0 9995
L22 20323 97.0982 332.0371 0072310 84.6571 276.2871 14.49209272802249



Live tracking and technical data element details for DELTA 1 R/B (NORAD 20323). DELTA 1 R/B can be tracked NOW for your location showing map with azimuth and elevation plus other details from your city location.







IsCatalogInMostPopularTable: catalog: 20323, numindb: 403
Update: records affected: 1



GetName: 20323 DELTA 1 R/B

Hit Count: updated at: Sun, 14 Apr 2024 23:25:57 GMT